• în România
  • Lista ţărilor
  • Pe 7 zile
  • Temperatura apei
  • Hartă satelitară
  • Meteo pe hartă
  • Widget-uri
  • user-avatar
    Intrare

    Meteo pe oră la Umag

    Astăzi, 18 Decembrie, Luni

    Timp Temperatura Precipitaţii Vânt Presiune Umiditate
    00:00 +2°C° 0 mm 2 m/s 768 mmHg 77%
    01:00 +1°C° 0 mm 2 m/s 768 mmHg 76%
    02:00 +1°C° 0 mm 2 m/s 768 mmHg 74%
    03:00 +1°C° 0 mm 2 m/s 768 mmHg 73%
    04:00 +1°C° 0 mm 2 m/s 768 mmHg 71%
    05:00 +1°C° 0 mm 2 m/s 768 mmHg 71%
    06:00 +1°C° 0 mm 2 m/s 768 mmHg 70%
    07:00 +1°C° 0 mm 2 m/s 768 mmHg 69%
    08:00 +2°C° 0 mm 2 m/s 768 mmHg 66%
    09:00 +3°C° 0 mm 2 m/s 768 mmHg 64%
    10:00 +4°C° 0 mm 2 m/s 768 mmHg 61%
    11:00 +5°C° 0 mm 2 m/s 768 mmHg 58%
    12:00 +6°C° 0 mm 2 m/s 768 mmHg 55%
    13:00 +6°C° 0 mm 2 m/s 767 mmHg 52%
    14:00 +6°C° 0,1 mm 2 m/s 768 mmHg 57%
    15:00 +5°C° 0,1 mm 2 m/s 768 mmHg 61%
    16:00 +4°C° 0,1 mm 2 m/s 768 mmHg 66%
    17:00 +3°C° 0 mm 2 m/s 768 mmHg 68%
    18:00 +3°C° 0 mm 2 m/s 769 mmHg 71%
    19:00 +1°C° 0 mm 3 m/s 769 mmHg 73%
    20:00 +1°C° 0 mm 3 m/s 770 mmHg 73%
    21:00 0°C° 0 mm 3 m/s 770 mmHg 74%
    22:00 0°C° 0 mm 3 m/s 770 mmHg 74%
    23:00 0°C° 0 mm 3 m/s 771 mmHg 74%

    Mâine, 19 Decembrie, Marţi

    Timp Temperatura Precipitaţii Vânt Presiune Umiditate
    00:00 0°C° 0 mm 3 m/s 771 mmHg 73%
    01:00 0°C° 0 mm 3 m/s 771 mmHg 73%
    02:00 -1°C° 0 mm 3 m/s 772 mmHg 73%
    03:00 -1°C° 0 mm 3 m/s 772 mmHg 73%
    04:00 -1°C° 0 mm 3 m/s 772 mmHg 73%
    05:00 -1°C° 0 mm 3 m/s 773 mmHg 73%
    06:00 -1°C° 0 mm 3 m/s 773 mmHg 73%
    07:00 -1°C° 0 mm 3 m/s 773 mmHg 73%
    08:00 0°C° 0 mm 3 m/s 774 mmHg 69%
    09:00 +1°C° 0 mm 3 m/s 774 mmHg 66%
    10:00 +2°C° 0 mm 3 m/s 775 mmHg 62%
    11:00 +4°C° 0 mm 2 m/s 774 mmHg 58%
    12:00 +5°C° 0 mm 2 m/s 774 mmHg 54%
    13:00 +6°C° 0 mm 2 m/s 774 mmHg 50%
    14:00 +5°C° 0 mm 2 m/s 774 mmHg 55%
    15:00 +5°C° 0 mm 1 m/s 774 mmHg 60%
    16:00 +4°C° 0 mm 1 m/s 774 mmHg 65%
    17:00 +2°C° 0 mm 2 m/s 774 mmHg 67%
    18:00 +2°C° 0 mm 2 m/s 775 mmHg 69%
    19:00 +1°C° 0 mm 2 m/s 775 mmHg 72%
    20:00 +1°C° 0 mm 2 m/s 775 mmHg 71%
    21:00 +1°C° 0 mm 2 m/s 775 mmHg 70%
    22:00 +1°C° 0 mm 2 m/s 776 mmHg 69%
    23:00 +1°C° 0 mm 2 m/s 776 mmHg 68%

    Poimâine, 20 Decembrie, Miercuri

    Timp Temperatura Precipitaţii Vânt Presiune Umiditate
    00:00 +1°C° 0 mm 2 m/s 775 mmHg 66%
    01:00 +1°C° 0 mm 2 m/s 775 mmHg 65%
    02:00 -1°C° 0 mm 2 m/s 775 mmHg 65%
    03:00 -1°C° 0 mm 2 m/s 775 mmHg 64%
    04:00 -1°C° 0 mm 3 m/s 775 mmHg 63%
    05:00 -1°C° 0 mm 2 m/s 775 mmHg 63%
    06:00 -1°C° 0 mm 2 m/s 775 mmHg 63%
    07:00 -1°C° 0 mm 2 m/s 775 mmHg 62%
    08:00 +2°C° 0 mm 2 m/s 775 mmHg 60%
    09:00 +3°C° 0 mm 2 m/s 775 mmHg 57%
    10:00 +4°C° 0 mm 2 m/s 775 mmHg 55%
    11:00 +5°C° 0 mm 2 m/s 774 mmHg 52%
    12:00 +7°C° 0 mm 1 m/s 774 mmHg 50%
    13:00 +8°C° 0 mm 1 m/s 774 mmHg 48%
    14:00 +6°C° 0 mm 1 m/s 773 mmHg 53%
    15:00 +5°C° 0 mm 1 m/s 773 mmHg 58%
    16:00 +3°C° 0 mm 2 m/s 773 mmHg 63%
    17:00 +3°C° 0 mm 2 m/s 773 mmHg 65%
    18:00 +2°C° 0 mm 2 m/s 774 mmHg 68%
    19:00 +2°C° 0 mm 2 m/s 774 mmHg 70%
    20:00 +2°C° 0 mm 2 m/s 774 mmHg 69%
    21:00 +2°C° 0 mm 2 m/s 774 mmHg 68%
    22:00 +2°C° 0 mm 2 m/s 774 mmHg 67%
    23:00 +2°C° 0 mm 2 m/s 774 mmHg 67%

    21 Decembrie, Joi

    Timp Temperatura Precipitaţii Vânt Presiune Umiditate
    00:00 +2°C° 0 mm 2 m/s 774 mmHg 66%
    01:00 +2°C° 0 mm 2 m/s 774 mmHg 65%
    02:00 +2°C° 0 mm 2 m/s 774 mmHg 65%
    03:00 +2°C° 0 mm 2 m/s 774 mmHg 66%
    04:00 +2°C° 0 mm 2 m/s 774 mmHg 66%
    05:00 +2°C° 0 mm 2 m/s 774 mmHg 67%
    06:00 +2°C° 0 mm 2 m/s 774 mmHg 68%
    07:00 +2°C° 0 mm 2 m/s 774 mmHg 69%
    08:00 +3°C° 0 mm 2 m/s 775 mmHg 67%
    09:00 +5°C° 0 mm 1 m/s 775 mmHg 65%
    10:00 +6°C° 0 mm 1 m/s 775 mmHg 63%
    11:00 +7°C° 0 mm 1 m/s 774 mmHg 62%
    12:00 +7°C° 0 mm 2 m/s 774 mmHg 60%
    13:00 +8°C° 0 mm 2 m/s 774 mmHg 58%
    14:00 +8°C° 0 mm 1 m/s 774 mmHg 63%
    15:00 +7°C° 0 mm 1 m/s 774 mmHg 68%
    16:00 +6°C° 0 mm 1 m/s 774 mmHg 73%
    17:00 +5°C° 0 mm 1 m/s 774 mmHg 74%
    18:00 +5°C° 0 mm 1 m/s 774 mmHg 74%
    19:00 +5°C° 0 mm 1 m/s 774 mmHg 75%
    20:00 +5°C° 0 mm 1 m/s 774 mmHg 75%
    21:00 +5°C° 0 mm 1 m/s 774 mmHg 76%
    22:00 +4°C° 0 mm 1 m/s 774 mmHg 76%
    23:00 +5°C° 0 mm 1 m/s 774 mmHg 76%

    22 Decembrie, Vineri

    Timp Temperatura Precipitaţii Vânt Presiune Umiditate
    00:00 +5°C° 0 mm 1 m/s 773 mmHg 76%
    01:00 +5°C° 0 mm 1 m/s 773 mmHg 75%
    02:00 +5°C° 0 mm 1 m/s 772 mmHg 76%
    03:00 +5°C° 0 mm 1 m/s 772 mmHg 77%
    04:00 +5°C° 0 mm 1 m/s 772 mmHg 77%
    05:00 +5°C° 0 mm 1 m/s 772 mmHg 78%
    06:00 +5°C° 0 mm 1 m/s 772 mmHg 79%
    07:00 +4°C° 0 mm 2 m/s 772 mmHg 79%
    08:00 +5°C° 0 mm 2 m/s 772 mmHg 77%
    09:00 +7°C° 0 mm 1 m/s 772 mmHg 75%
    10:00 +8°C° 0 mm 1 m/s 772 mmHg 73%
    11:00 +9°C° 0 mm 1 m/s 772 mmHg 72%
    12:00 +10°C° 0 mm 1 m/s 771 mmHg 71%
    13:00 +11°C° 0 mm 1 m/s 771 mmHg 71%
    14:00 +10°C° 0 mm 1 m/s 771 mmHg 75%
    15:00 +9°C° 0 mm 1 m/s 772 mmHg 79%
    16:00 +8°C° 0 mm 1 m/s 772 mmHg 84%
    17:00 +8°C° 0 mm 1 m/s 772 mmHg 84%
    18:00 +7°C° 0 mm 1 m/s 772 mmHg 85%
    19:00 +6°C° 0 mm 2 m/s 773 mmHg 85%
    20:00 +6°C° 0 mm 2 m/s 773 mmHg 85%
    21:00 +6°C° 0 mm 2 m/s 773 mmHg 84%
    22:00 +6°C° 0 mm 2 m/s 773 mmHg 84%
    23:00 +6°C° 0 mm 2 m/s 773 mmHg 84%

    23 Decembrie, Sâmbătă

    Timp Temperatura Precipitaţii Vânt Presiune Umiditate
    00:00 +6°C° 0 mm 1 m/s 772 mmHg 84%
    01:00 +6°C° 0 mm 1 m/s 772 mmHg 84%
    02:00 +6°C° 0 mm 1 m/s 771 mmHg 84%
    03:00 +6°C° 0 mm 1 m/s 770 mmHg 84%
    04:00 +6°C° 0 mm 1 m/s 770 mmHg 84%
    05:00 +6°C° 0 mm 1 m/s 769 mmHg 84%
    06:00 +6°C° 0 mm 1 m/s 769 mmHg 85%
    07:00 +6°C° 0 mm 1 m/s 768 mmHg 86%
    08:00 +7°C° 0 mm 1 m/s 768 mmHg 85%
    09:00 +7°C° 0 mm 1 m/s 768 mmHg 84%
    10:00 +8°C° 0 mm 1 m/s 768 mmHg 83%
    11:00 +9°C° 0 mm 1 m/s 767 mmHg 80%
    12:00 +10°C° 0 mm 1 m/s 767 mmHg 77%
    13:00 +11°C° 0 mm 1 m/s 766 mmHg 74%
    14:00 +10°C° 0 mm 1 m/s 766 mmHg 78%
    15:00 +9°C° 0 mm 1 m/s 766 mmHg 81%
    16:00 +8°C° 0 mm 1 m/s 766 mmHg 85%
    17:00 +7°C° 0 mm 1 m/s 767 mmHg 85%
    18:00 +7°C° 0 mm 1 m/s 768 mmHg 85%
    19:00 +6°C° 0 mm 1 m/s 768 mmHg 85%
    20:00 +5°C° 0 mm 2 m/s 769 mmHg 84%
    21:00 +3°C° 0 mm 3 m/s 770 mmHg 83%
    22:00 +3°C° 0 mm 4 m/s 770 mmHg 82%
    23:00 +3°C° 0 mm 4 m/s 771 mmHg 80%
    Arată mai mult